SITRO-AIS 6 (CHIRKIN)

Last updated on Wed Mar 11 2026 00:03:59 GMT+0000 (Coordinated Universal Time)

1 57192U 23091AC 26069.43598656 .00008796 00000+0 36049-3 0 9992 2 57192 97.5181 132.1073 0014214 93.6593 266.6270 15.24423210149233
UTC large
Height (km)
Speed (km/s)
/
Latitude / Longitude
Inclination (degrees)
Orbital Period (minutes)
Azimuth
Elevation
Range (km)
Doppler Factor

Next 0 passes for location: London (51.5072 / 0.1276)

Sorry there are no passes over London.